TimeAEST,TemperatureF,Dew PointF,Humidity,Sea Level PressureIn,VisibilityMPH,Wind Direction,Wind SpeedMPH,Gust SpeedMPH,PrecipitationIn,Events,Conditions,WindDirDegrees,DateUTC
12:00 AM,53,46,70,30.38,19,SSW,4.6,,,,Partly Cloudy,210,2013-05-26 14:00:00
12:00 AM,53.6,46.4,77,30.36,6.2,SSW,4.6,-,N/A,,Mostly Cloudy,210,2013-05-26 14:00:00
12:30 AM,51.8,46.4,82,30.36,6.2,WSW,5.8,-,N/A,,Mostly Cloudy,240,2013-05-26 14:30:00
1:00 AM,52,47,76,30.39,,WSW,4.6,,,,,240,2013-05-26 15:00:00
1:00 AM,51.8,46.4,82,30.36,6.2,WSW,4.6,-,N/A,,Mostly Cloudy,240,2013-05-26 15:00:00
1:30 AM,51.8,46.4,82,30.36,6.2,SW,4.6,-,N/A,,Mostly Cloudy,230,2013-05-26 15:30:00
2:00 AM,51.8,46.4,82,30.36,6.2,SW,3.5,-,N/A,,Mostly Cloudy,230,2013-05-26 16:00:00
2:30 AM,51.8,46.4,82,30.39,6.2,South,5.8,-,N/A,,Mostly Cloudy,180,2013-05-26 16:30:00
3:00 AM,51,49,88,30.39,11,South,6.9,,,Rain,Light Rain,180,2013-05-26 17:00:00
3:00 AM,50.0,48.2,94,30.39,6.2,South,6.9,-,N/A,Rain,Light Rain,180,2013-05-26 17:00:00
3:30 AM,50.0,48.2,94,30.39,6.2,SW,5.8,-,N/A,,Mostly Cloudy,220,2013-05-26 17:30:00
4:00 AM,50,48,90,30.40,,WSW,4.6,,,,,240,2013-05-26 18:00:00
4:00 AM,50.0,48.2,94,30.39,6.2,WSW,4.6,-,N/A,,Mostly Cloudy,240,2013-05-26 18:00:00
4:30 AM,50.0,48.2,94,30.39,6.2,SW,5.8,-,N/A,,Mostly Cloudy,230,2013-05-26 18:30:00
5:00 AM,50.0,48.2,94,30.39,6.2,SW,6.9,-,N/A,,Mostly Cloudy,220,2013-05-26 19:00:00
5:11 AM,50.0,48.2,94,30.39,6.2,SW,6.9,-,N/A,,Mostly Cloudy,220,2013-05-26 19:11:00
5:30 AM,50.0,48.2,94,30.39,6.2,SSW,5.8,-,N/A,,Mostly Cloudy,200,2013-05-26 19:30:00
6:00 AM,49,48,93,30.40,12,SW,5.8,,,,Haze,230,2013-05-26 20:00:00
6:00 AM,50.0,48.2,94,30.39,6.2,SW,5.8,-,N/A,,Mostly Cloudy,230,2013-05-26 20:00:00
6:30 AM,48.2,48.2,100,30.39,6.2,West,5.8,-,N/A,,Mostly Cloudy,260,2013-05-26 20:30:00
7:00 AM,49,47,91,30.42,,WSW,4.6,,,,,250,2013-05-26 21:00:00
7:00 AM,48.2,46.4,93,30.42,6.2,WSW,4.6,-,N/A,,Scattered Clouds,250,2013-05-26 21:00:00
7:30 AM,48.2,46.4,93,30.42,6.2,WSW,5.8,-,N/A,,Scattered Clouds,250,2013-05-26 21:30:00
8:00 AM,48.2,48.2,100,30.42,6.2,West,4.6,-,N/A,,Mostly Cloudy,270,2013-05-26 22:00:00
8:30 AM,50.0,48.2,94,30.42,6.2,West,1.2,-,N/A,,Mostly Cloudy,270,2013-05-26 22:30:00
8:41 AM,50.0,48.2,94,30.45,6.2,Calm,Calm,-,N/A,,Mostly Cloudy,0,2013-05-26 22:41:00
9:00 AM,51,49,90,30.46,12,Calm,Calm,,,,Haze,,2013-05-26 23:00:00
9:00 AM,51.8,48.2,88,30.45,6.2,Calm,Calm,-,N/A,,Mostly Cloudy,0,2013-05-26 23:00:00
9:30 AM,51.8,50.0,94,30.45,6.2,WSW,4.6,-,N/A,,Mostly Cloudy,250,2013-05-26 23:30:00
10:00 AM,53,50,85,30.47,,SSW,5.8,,,,,200,2013-05-27 00:00:00
10:00 AM,53.6,50.0,88,30.45,6.2,SSW,5.8,-,N/A,,Mostly Cloudy,200,2013-05-27 00:00:00
10:30 AM,51.8,50.0,94,30.45,6.2,SSE,5.8,-,N/A,,Mostly Cloudy,160,2013-05-27 00:30:00
11:00 AM,53.6,50.0,88,30.45,6.2,SSW,4.6,-,N/A,,Mostly Cloudy,200,2013-05-27 01:00:00
11:30 AM,55.4,50.0,82,30.42,6.2,SSE,5.8,-,N/A,,Mostly Cloudy,160,2013-05-27 01:30:00
12:00 PM,56,49,70,30.44,16,SSE,5.8,,,,Haze,150,2013-05-27 02:00:00
12:00 PM,57.2,48.2,72,30.42,6.2,SSE,5.8,-,N/A,,Mostly Cloudy,150,2013-05-27 02:00:00
12:30 PM,57.2,48.2,72,30.42,6.2,East,1.2,-,N/A,,Mostly Cloudy,100,2013-05-27 02:30:00
1:00 PM,57,47,60,30.42,,South,5.8,,,,,180,2013-05-27 03:00:00
1:00 PM,57.2,46.4,67,30.39,6.2,South,5.8,-,N/A,,Mostly Cloudy,180,2013-05-27 03:00:00
1:30 PM,57.2,48.2,72,30.39,6.2,SSE,8.1,-,N/A,,Mostly Cloudy,150,2013-05-27 03:30:00
2:00 PM,57.2,48.2,72,30.39,6.2,SSE,9.2,-,N/A,,Mostly Cloudy,150,2013-05-27 04:00:00
2:30 PM,57.2,48.2,72,30.39,6.2,SSE,11.5,-,N/A,,Mostly Cloudy,160,2013-05-27 04:30:00
3:00 PM,57,49,65,30.39,19,SSE,11.5,,,,Partly Cloudy,160,2013-05-27 05:00:00
3:00 PM,57.2,48.2,72,30.39,6.2,SSE,11.5,-,N/A,,Mostly Cloudy,160,2013-05-27 05:00:00
3:30 PM,57.2,48.2,72,30.39,6.2,South,8.1,-,N/A,,Mostly Cloudy,180,2013-05-27 05:30:00
4:00 PM,57,47,61,30.39,,South,10.4,,,,,170,2013-05-27 06:00:00
4:00 PM,57.2,48.2,72,30.39,6.2,South,10.4,-,N/A,,Mostly Cloudy,170,2013-05-27 06:00:00
4:30 PM,57.2,46.4,67,30.39,6.2,SE,9.2,-,N/A,,Mostly Cloudy,140,2013-05-27 06:30:00
5:00 PM,55.4,46.4,72,30.39,6.2,SSE,8.1,-,N/A,,Mostly Cloudy,160,2013-05-27 07:00:00
5:30 PM,51.8,44.6,76,30.39,6.2,SSE,8.1,-,N/A,,Mostly Cloudy,160,2013-05-27 07:30:00
6:00 PM,51,44,71,30.40,19,SSE,6.9,,,,Partly Cloudy,150,2013-05-27 08:00:00
6:00 PM,51.8,44.6,76,30.39,6.2,SSE,6.9,-,N/A,,Mostly Cloudy,150,2013-05-27 08:00:00
6:30 PM,50.0,44.6,82,30.39,6.2,SSE,8.1,-,N/A,,Mostly Cloudy,160,2013-05-27 08:30:00
7:00 PM,51,46,78,30.40,,SE,6.9,,,,,140,2013-05-27 09:00:00
7:00 PM,51.8,46.4,82,30.39,-9999.0,SE,6.9,-,N/A,,Clear,140,2013-05-27 09:00:00
7:30 PM,51.8,46.4,82,30.39,-9999.0,SE,6.9,-,N/A,,Clear,140,2013-05-27 09:30:00
8:00 PM,48.2,44.6,87,30.39,-9999.0,Calm,Calm,-,N/A,,Clear,0,2013-05-27 10:00:00
8:30 PM,48.2,44.6,87,30.39,-9999.0,Calm,Calm,-,N/A,,Clear,0,2013-05-27 10:30:00
9:00 PM,44,43,93,30.41,16,Calm,Calm,,,,Haze,,2013-05-27 11:00:00
9:00 PM,44.6,42.8,93,30.39,-9999.0,Calm,Calm,-,N/A,,Clear,0,2013-05-27 11:00:00
9:30 PM,44.6,42.8,93,30.39,-9999.0,North,4.6,-,N/A,,Clear,350,2013-05-27 11:30:00
10:00 PM,44,42,91,30.41,,North,5.8,,,,,0,2013-05-27 12:00:00
10:00 PM,42.8,42.8,100,30.39,-9999.0,North,5.8,-,N/A,,Clear,360,2013-05-27 12:00:00
10:30 PM,44.6,42.8,93,30.39,-9999.0,North,6.9,-,N/A,,Clear,350,2013-05-27 12:30:00
11:00 PM,42.8,42.8,100,30.39,-9999.0,North,6.9,-,N/A,,Clear,350,2013-05-27 13:00:00
11:30 PM,42.8,42.8,100,30.39,-9999.0,North,8.1,-,N/A,,Clear,350,2013-05-27 13:30:00